Flag for Oman Weather past 2 weeks in Salalah, Oman

Now
81 °F

Drizzle. Mostly cloudy.


Feels Like: 89 °F
Forecast: 79 / 88 °F
Wind: 6 mph from South

Location: Salalah Airport

Current Time: Jul 6, 2015 at 5:27:47 AM

Latest Report: Jul 6, 2015 at 4:50 AM


Visibility: 3 mi

Pressure: 29.74 "Hg

Humidity: 100%

Dew point: 81 °F

Location of SalalahLocation

Historic Weather in Salalah — Graph

°F

Salalah temperature yesterday

Maximum temperature yesterday: 86 °F (at 10:50 AM)
Minimum temperature yesterday: 81 °F (at 12:50 AM)
Average temperature yesterday: 83 °F

Past Weeks' High & Low Weather Summary

 TemperatureHumidityPressure
High91 °F (Jun 23, 11:50 AM)100% (Jun 24, 2:50 AM)29.83 "Hg (Jun 24, 2:50 AM)
Low79 °F (Jun 24, 2:50 AM)63% (Jun 23, 1:50 PM)29.47 "Hg (Jun 22, 1:50 PM)
Average84 °F84%29.68 "Hg
* Reported Jun 21 3:50 AM — Jul 6 3:50 AM, Salalah, Weather by CustomWeather, © 2015

Note: Actual official high and low records may vary slightly from our data, if they occured in-between our weather recording intervals... More about our weather records

Advertising

Salalah weather history for previous 24 hours

 ConditionsComfort  
Time TempWeatherWind HumidityBarometerVisibility
3:50 AM
Mon, Jul 6
82 °FPassing clouds.6 mph89%29.74 "Hg5 mi
2:50 AM81 °FPartly cloudy.5 mph100%29.74 "Hg5 mi
1:50 AM81 °FPartly cloudy.6 mph100%29.74 "Hg5 mi
12:50 AM81 °FPartly cloudy.5 mph100%29.77 "Hg5 mi
11:50 PM
Sun, Jul 5
82 °FPassing clouds.6 mph89%29.77 "Hg5 mi
10:50 PM82 °FPassing clouds.6 mph89%29.77 "Hg5 mi
9:50 PM82 °FPassing clouds.6 mph89%29.77 "Hg6 mi
8:50 PM82 °FPassing clouds.8 mph89%29.74 "Hg6 mi
7:50 PM82 °FPassing clouds.8 mph89%29.74 "Hg6 mi
6:50 PM82 °FScattered clouds.9 mph89%29.71 "Hg6 mi
5:50 PM84 °FScattered clouds.10 mph84%29.71 "HgN/A
4:50 PM84 °FScattered clouds.14 mph84%29.71 "HgN/A
3:50 PM86 °FScattered clouds.15 mph75%29.74 "HgN/A
2:50 PM86 °FPartly sunny.14 mph79%29.74 "HgN/A
1:50 PM86 °FScattered clouds.14 mph79%29.74 "HgN/A
12:50 PM86 °FPartly sunny.14 mph79%29.77 "Hg5 mi
12:00 PM86 °FScattered clouds.13 mph79%29.77 "Hg6 mi
11:50 AM86 °FScattered clouds.13 mph79%29.77 "Hg6 mi
10:50 AM86 °FScattered clouds.14 mph79%29.77 "Hg5 mi
9:50 AM84 °FScattered clouds.10 mph84%29.80 "Hg4 mi
8:50 AM84 °FBroken clouds.12 mph84%29.80 "Hg4 mi
7:50 AM82 °FBroken clouds.9 mph89%29.80 "Hg4 mi
6:50 AM81 °FBroken clouds.8 mph94%29.77 "Hg4 mi
5:50 AM81 °FPassing clouds.7 mph94%29.77 "Hg6 mi
Weather by CustomWeather, © 2015

See weather overviewHow to use our weather pages